Weather History for EBBL - December, 2012

Change the Weather History Date:

Friday, December 14, 2012

  Actual Average Record
Temperature  
Mean Temperature 41 °F -  
Max Temperature 50 °F 40 °F - ()
Min Temperature 32 °F 33 °F - ()
Degree Days  
Heating Degree Days 24    
Moisture  
Dew Point 39 °F    
Average Humidity 90    
Maximum Humidity 100    
Minimum Humidity 80    
Precipitation  
Precipitation 0.28 in - - ()
Sea Level Pressure  
Sea Level Pressure 29.42 in    
Wind  
Wind Speed 4 mph ()    
Max Wind Speed 13 mph    
Max Gust Speed 24 mph    
Visibility 5.2 miles    
Events Rain    
T = Trace of Precipitation, MM = Missing Value Source: Averaged Metar Reports

Daily Weather History Graph

Daily Weather History Graph

Search for Another Location

Airport or City:

Trip Planner

Search our weather history database for the weather conditions in past years. The results will help you decide how hot, cold, wet, or windy it might be!

Date:

Astronomy

Dec. 14, 2012 Rise Set
Actual Time 8:35 AM CET 4:30 PM CET
Civil Twilight 7:55 AM CET 5:10 PM CET
Nautical Twilight 7:12 AM CET 5:53 PM CET
Astronomical Twilight 6:32 AM CET 6:33 PM CET
Moon 9:20 AM CET (12/14) 6:10 PM CET (12/14)
Length of Visible Light 9h 15m
Length of Day
7h 55m
New Moon, 2% of the Moon is Illuminated
Dec 14
New Moon
Dec 20
First Quarter
Dec 28
Full
Jan 5
Last Quarter
Jan 11
New

Hourly Weather History & Observations

Time (CET) Temp. Windchill Dew Point Humidity Pressure Visibility Wind Dir Wind Speed Gust Speed Precip Events Conditions
12:25 AM 33.8 °F - 32.0 °F 93% 29.68 in 2.5 mi Variable 2.3 mph - N/A   Mostly Cloudy
12:55 AM 33.8 °F - 32.0 °F 93% 29.68 in 2.5 mi Variable 1.2 mph - N/A   Mostly Cloudy
1:25 AM 33.8 °F - 33.8 °F 100% 29.68 in 2.5 mi Variable 1.2 mph - N/A   Mostly Cloudy
1:55 AM 33.8 °F - 33.8 °F 100% 29.68 in 5.0 mi Variable 2.3 mph - N/A   Mostly Cloudy
2:25 AM 35.6 °F - 33.8 °F 93% 29.65 in 5.6 mi Variable 2.3 mph - N/A   Mostly Cloudy
3:18 AM 35.6 °F - 33.8 °F 93% 29.65 in 3.1 mi Variable 2.3 mph - N/A   Mostly Cloudy
3:25 AM 35.6 °F - 33.8 °F 93% 29.65 in 3.1 mi Variable 2.3 mph - N/A   Mostly Cloudy
3:55 AM 35.6 °F - 33.8 °F 93% 29.65 in 4.3 mi Variable 2.3 mph - N/A   Mostly Cloudy
4:00 AM 36 °F - 34 °F 91% 29.66 in 4 mi 2.2 mph - -   Mostly Cloudy
4:25 AM 35.6 °F - 33.8 °F 93% 29.65 in 4.3 mi Variable 2.3 mph - N/A   Mostly Cloudy
4:55 AM 37.4 °F - 35.6 °F 93% 29.62 in 4.3 mi Variable 2.3 mph - N/A   Mostly Cloudy
5:03 AM 37.4 °F - 35.6 °F 93% 29.65 in 5.6 mi Variable 2.3 mph - N/A   Overcast
5:18 AM 37.4 °F - 35.6 °F 93% 29.65 in 5.6 mi Variable 2.3 mph - N/A   Mostly Cloudy
5:25 AM 37.4 °F - 35.6 °F 93% 29.65 in 5.6 mi Variable 2.3 mph - N/A   Mostly Cloudy
5:55 AM 37.4 °F - 35.6 °F 93% 29.62 in 5.6 mi Variable 2.3 mph - N/A   Mostly Cloudy
6:04 AM 37.4 °F - 35.6 °F 93% 29.62 in 6.2 mi Variable 2.3 mph - N/A   Overcast
6:20 AM 37.4 °F 34.9 °F 35.6 °F 93% 29.62 in 6.2 mi Variable 3.5 mph - N/A   Mostly Cloudy
6:25 AM 37.4 °F - 35.6 °F 93% 29.62 in 6.2 mi Variable 2.3 mph - N/A   Mostly Cloudy
6:55 AM 39.2 °F - 35.6 °F 87% 29.62 in 6.2 mi Variable 2.3 mph - N/A   Mostly Cloudy
7:00 AM 38 °F - 36 °F 87% 29.63 in 8 mi 2.2 mph - -   Mostly Cloudy
7:25 AM 39.2 °F 35.9 °F 35.6 °F 87% 29.59 in 6.2 mi SE 4.6 mph - N/A   Mostly Cloudy
7:55 AM 39.2 °F 37.0 °F 35.6 °F 87% 29.56 in 6.2 mi Variable 3.5 mph - N/A   Mostly Cloudy
8:25 AM 37.4 °F 34.9 °F 35.6 °F 93% 29.56 in 6.2 mi Variable 3.5 mph - N/A   Mostly Cloudy
8:55 AM 37.4 °F 33.8 °F 35.6 °F 93% 29.53 in 6.2 mi East 4.6 mph - N/A   Mostly Cloudy
9:25 AM 35.6 °F 32.8 °F 33.8 °F 93% 29.53 in 6.2 mi Variable 3.5 mph - N/A   Mostly Cloudy
9:55 AM 35.6 °F 31.7 °F 33.8 °F 93% 29.53 in 6.2 mi East 4.6 mph - N/A   Mostly Cloudy
10:00 AM 36 °F - 34 °F 90% 29.55 in 12 mi 4.5 mph - -   Partly Cloudy
10:25 AM 37.4 °F 34.9 °F 35.6 °F 93% 29.53 in 6.2 mi Variable 3.5 mph - N/A   Mostly Cloudy
10:55 AM 39.2 °F 35.9 °F 35.6 °F 87% 29.50 in 6.2 mi WNW 4.6 mph - N/A   Mostly Cloudy
11:23 AM 39.2 °F 34.2 °F 35.6 °F 87% 29.47 in 6.2 mi East 6.9 mph - N/A   Mostly Cloudy
11:25 AM 39.2 °F 34.2 °F 35.6 °F 87% 29.47 in 6.2 mi East 6.9 mph - N/A   Mostly Cloudy
11:55 AM 39.2 °F 35.0 °F 35.6 °F 87% 29.47 in 6.2 mi ESE 5.8 mph - N/A   Mostly Cloudy
12:00 PM 39.2 °F 35.0 °F 35.6 °F 87% 29.47 in 6.2 mi ESE 5.8 mph - N/A   Mostly Cloudy
12:25 PM 41.0 °F 37.1 °F 35.6 °F 81% 29.44 in 6.2 mi East 5.8 mph - N/A   Mostly Cloudy
12:40 PM 39.2 °F 34.2 °F 37.4 °F 93% 29.42 in 6.2 mi East 6.9 mph - N/A   Mostly Cloudy
12:55 PM 39.2 °F 34.2 °F 35.6 °F 87% 29.42 in 6.2 mi ESE 6.9 mph - N/A   Mostly Cloudy
1:00 PM 40 °F - 36 °F 80% 29.44 in 9 mi ESE 6.7 mph - -   Partly Cloudy
1:25 PM 41.0 °F 37.1 °F 35.6 °F 81% 29.39 in 6.2 mi ESE 5.8 mph - N/A   Mostly Cloudy
1:47 PM 41.0 °F 37.1 °F 37.4 °F 87% 29.36 in 6.2 mi NW 5.8 mph - N/A   Mostly Cloudy
1:55 PM 41.0 °F 38.0 °F 37.4 °F 87% 29.33 in 6.2 mi ESE 4.6 mph - N/A   Mostly Cloudy
2:25 PM 41.0 °F 37.1 °F 37.4 °F 87% 29.33 in 6.2 mi ESE 5.8 mph - N/A   Mostly Cloudy
2:38 PM 41.0 °F 37.1 °F 37.4 °F 87% 29.33 in 6.2 mi ESE 5.8 mph - N/A Rain Light Rain
2:55 PM 41.0 °F 37.1 °F 39.2 °F 93% 29.30 in 2.8 mi ESE 5.8 mph - N/A Rain Light Rain
3:10 PM 41.0 °F 38.0 °F 39.2 °F 93% 29.30 in 2.5 mi ESE 4.6 mph - N/A Rain Rain
3:25 PM 42.8 °F 41.1 °F 41.0 °F 93% 29.30 in 2.5 mi Variable 3.5 mph - N/A Rain Rain
3:55 PM 42.8 °F 39.3 °F 41.0 °F 93% 29.27 in 2.8 mi SE 5.8 mph - N/A Rain Rain
4:00 PM 43 °F - 42 °F 92% 29.29 in 3 mi SE 4.5 mph - - Rain Rain
4:14 PM 44.6 °F 41.4 °F 42.8 °F 93% 29.27 in 1.9 mi SE 5.8 mph - N/A Rain Rain
4:22 PM 44.6 °F 40.7 °F 42.8 °F 93% 29.24 in 2.5 mi SE 6.9 mph - N/A Rain Rain
4:25 PM 44.6 °F 40.2 °F 42.8 °F 93% 29.24 in 2.5 mi SSE 8.1 mph - N/A Rain Rain
4:55 PM 44.6 °F 39.7 °F 42.8 °F 93% 29.21 in 2.8 mi SSE 9.2 mph - N/A Rain Light Rain
5:24 PM 44.6 °F 40.2 °F 42.8 °F 93% 29.21 in 3.1 mi South 8.1 mph - N/A Rain Light Rain
5:25 PM 44.6 °F 40.2 °F 42.8 °F 93% 29.21 in 3.1 mi South 8.1 mph - N/A Rain Light Rain
5:55 PM 46.4 °F 41.9 °F 42.8 °F 87% 29.18 in 3.7 mi South 9.2 mph - N/A Rain Light Rain
6:25 PM 46.4 °F 41.9 °F 44.6 °F 93% 29.18 in 3.7 mi South 9.2 mph - N/A Rain Light Rain
6:55 PM 48.2 °F - 44.6 °F 87% 29.18 in 3.7 mi South 11.5 mph - N/A Rain Light Rain
7:00 PM 47 °F - 45 °F 89% 29.19 in 4 mi South 11.2 mph - - Rain Light Rain
7:25 PM 48.2 °F - 44.6 °F 87% 29.18 in 3.7 mi South 10.4 mph - N/A Rain Light Rain
7:55 PM 48.2 °F - 46.4 °F 93% 29.18 in 6.2 mi South 11.5 mph 24.2 mph N/A   Mostly Cloudy
8:25 PM 48.2 °F - 46.4 °F 93% 29.18 in 6.2 mi SSW 11.5 mph - N/A Rain Light Rain
8:55 PM 48.2 °F - 46.4 °F 93% 29.18 in 4.3 mi SSW 11.5 mph - N/A Rain Light Rain
9:25 PM 50.0 °F - 46.4 °F 87% 29.18 in 6.2 mi SSW 11.5 mph - N/A   Mostly Cloudy
9:55 PM 50.0 °F - 46.4 °F 87% 29.21 in 6.2 mi SSW 12.7 mph - N/A   Mostly Cloudy
9:56 PM 50.0 °F - 46.4 °F 87% 29.21 in 6.2 mi SSW 11.5 mph - N/A   Mostly Cloudy
10:00 PM 49 °F - 46 °F 86% 29.21 in 12 mi SSW 11.2 mph - - Rain Light Rain
10:25 PM 48.2 °F - 46.4 °F 93% 29.21 in 6.2 mi SSW 10.4 mph - N/A   Mostly Cloudy
10:55 PM 48.2 °F - 44.6 °F 87% 29.21 in 6.2 mi SSW 11.5 mph - N/A   Scattered Clouds
11:25 PM 48.2 °F - 44.6 °F 87% 29.24 in 6.2 mi SSW 12.7 mph - N/A   Scattered Clouds
11:55 PM 48.2 °F - 42.8 °F 82% 29.24 in 6.2 mi SSW 12.7 mph - N/A   Partly Cloudy